Time,TemperatureF,DewpointF,PressureIn,WindDirection,WindDirectionDegrees,WindSpeedMPH,WindSpeedGustMPH,Humidity,HourlyPrecipIn,Conditions,Clouds,dailyrainin,SolarRadiationWatts/m^2,SoftwareType,DateUTC
2013-05-20 00:03:00,72.0,70.0,-100.00,ESE,122,4.0,-999.0,92,0.00,,,-99.99,0.000000,,2013-05-20 04:03:00,
2013-05-20 00:13:00,72.0,70.0,-100.00,SE,135,4.0,-999.0,91,0.00,,,-99.99,0.000000,,2013-05-20 04:13:00,
2013-05-20 00:23:00,72.0,70.0,-100.00,SE,135,4.0,-999.0,91,0.00,,,-99.99,0.000000,,2013-05-20 04:23:00,
2013-05-20 00:33:00,72.0,70.0,-100.00,SE,130,3.0,-999.0,91,0.00,,,-99.99,0.000000,,2013-05-20 04:33:00,
2013-05-20 00:42:00,72.0,70.0,-100.00,ESE,112,2.0,-999.0,91,0.00,,,-99.99,0.000000,,2013-05-20 04:42:00,
2013-05-20 00:53:00,72.0,70.0,-100.00,ESE,112,2.0,-999.0,91,0.00,,,-99.99,0.000000,,2013-05-20 04:53:00,
2013-05-20 01:02:00,72.0,69.0,-100.00,ESE,121,3.0,-999.0,91,0.00,,,-99.99,0.000000,,2013-05-20 05:02:00,
2013-05-20 01:12:00,72.0,70.0,-100.00,SE,127,3.0,-999.0,91,0.00,,,-99.99,0.000000,,2013-05-20 05:12:00,
2013-05-20 01:22:00,72.0,70.0,-100.00,SE,127,3.0,-999.0,91,0.00,,,-99.99,0.000000,,2013-05-20 05:22:00,
2013-05-20 01:32:00,72.0,69.0,-100.00,ESE,114,4.0,-999.0,91,0.00,,,-99.99,0.000000,,2013-05-20 05:32:00,
2013-05-20 01:42:00,72.0,70.0,-100.00,SE,126,5.0,-999.0,92,0.00,,,-99.99,0.000000,,2013-05-20 05:42:00,
2013-05-20 01:52:00,72.0,70.0,-100.00,SE,126,5.0,-999.0,92,0.00,,,-99.99,0.000000,,2013-05-20 05:52:00,
2013-05-20 02:01:00,72.0,69.0,-100.00,ESE,115,5.0,-999.0,92,0.00,,,-99.99,0.000000,,2013-05-20 06:01:00,
2013-05-20 02:11:00,71.0,69.0,-100.00,ESE,121,5.0,-999.0,93,0.00,,,-99.99,0.000000,,2013-05-20 06:11:00,
2013-05-20 02:21:00,71.0,69.0,-100.00,ESE,121,5.0,-999.0,93,0.00,,,-99.99,0.000000,,2013-05-20 06:21:00,
2013-05-20 02:32:00,71.0,69.0,-100.00,SE,124,3.0,-999.0,93,0.00,,,-99.99,0.000000,,2013-05-20 06:32:00,
2013-05-20 02:42:00,71.0,69.0,-100.00,SE,124,3.0,-999.0,93,0.00,,,-99.99,0.000000,,2013-05-20 06:42:00,
2013-05-20 02:52:00,71.0,70.0,-100.00,SE,137,2.0,-999.0,93,0.00,,,-99.99,0.000000,,2013-05-20 06:52:00,
2013-05-20 03:02:00,72.0,70.0,-100.00,SE,146,3.0,-999.0,93,0.00,,,-99.99,0.000000,,2013-05-20 07:02:00,
2013-05-20 03:12:00,72.0,70.0,-100.00,ESE,121,3.0,-999.0,93,0.00,,,-99.99,0.000000,,2013-05-20 07:12:00,
2013-05-20 03:21:00,72.0,70.0,-100.00,ESE,121,3.0,-999.0,93,0.00,,,-99.99,0.000000,,2013-05-20 07:21:00,
2013-05-20 03:32:00,72.0,70.0,-100.00,SE,124,3.0,-999.0,93,0.00,,,-99.99,0.000000,,2013-05-20 07:32:00,
2013-05-20 03:42:00,72.0,70.0,-100.00,SE,132,4.0,-999.0,93,0.00,,,-99.99,0.000000,,2013-05-20 07:42:00,
2013-05-20 03:52:00,72.0,70.0,-100.00,SE,132,4.0,-999.0,93,0.00,,,-99.99,0.000000,,2013-05-20 07:52:00,
2013-05-20 04:01:00,72.0,70.0,-100.00,SE,139,3.0,-999.0,93,0.00,,,-99.99,0.000000,,2013-05-20 08:01:00,
2013-05-20 04:11:00,72.0,70.0,-100.00,SE,128,3.0,-999.0,93,0.00,,,-99.99,0.000000,,2013-05-20 08:11:00,
2013-05-20 04:21:00,72.0,70.0,-100.00,SE,128,3.0,-999.0,93,0.00,,,-99.99,0.000000,,2013-05-20 08:21:00,
2013-05-20 04:32:00,72.0,70.0,-100.00,ESE,123,4.0,-999.0,93,0.00,,,-99.99,0.000000,,2013-05-20 08:32:00,
2013-05-20 04:42:00,72.0,70.0,-100.00,SE,144,3.0,-999.0,93,0.00,,,-99.99,0.000000,,2013-05-20 08:42:00,
2013-05-20 04:52:00,72.0,70.0,-100.00,SE,144,3.0,-999.0,93,0.00,,,-99.99,0.000000,,2013-05-20 08:52:00,
2013-05-20 05:02:00,72.0,70.0,-100.00,ESE,123,2.0,-999.0,93,0.00,,,-99.99,0.000000,,2013-05-20 09:02:00,
2013-05-20 05:12:00,71.0,69.0,-100.00,SSE,155,1.0,-999.0,93,0.00,,,-99.99,0.000000,,2013-05-20 09:12:00,
2013-05-20 05:21:00,71.0,69.0,-100.00,SSE,155,1.0,-999.0,93,0.00,,,-99.99,0.000000,,2013-05-20 09:21:00,
2013-05-20 05:32:00,71.0,70.0,-100.00,SSE,149,2.0,-999.0,94,0.00,,,-99.99,0.000000,,2013-05-20 09:32:00,
2013-05-20 05:43:00,71.0,70.0,-100.00,SE,135,2.0,-999.0,94,0.00,,,-99.99,0.000000,,2013-05-20 09:43:00,
2013-05-20 05:53:00,71.0,70.0,-100.00,SE,135,2.0,-999.0,94,0.00,,,-99.99,0.000000,,2013-05-20 09:53:00,
2013-05-20 06:03:00,72.0,70.0,-100.00,SE,128,4.0,-999.0,95,0.00,,,-99.99,0.000000,,2013-05-20 10:03:00,
2013-05-20 06:12:00,72.0,70.0,-100.00,ESE,123,3.0,-999.0,95,0.00,,,-99.99,0.000000,,2013-05-20 10:12:00,
2013-05-20 06:22:00,72.0,70.0,-100.00,ESE,123,3.0,-999.0,95,0.00,,,-99.99,0.000000,,2013-05-20 10:22:00,
2013-05-20 06:33:00,71.0,70.0,-100.00,East,86,2.0,-999.0,95,0.00,,,-99.99,0.000000,,2013-05-20 10:33:00,
2013-05-20 06:42:00,71.0,69.0,-100.00,East,85,3.0,-999.0,95,0.00,,,-99.99,0.500000,,2013-05-20 10:42:00,
2013-05-20 06:52:00,71.0,69.0,-100.00,East,85,3.0,-999.0,95,0.00,,,-99.99,0.500000,,2013-05-20 10:52:00,
2013-05-20 07:02:00,70.0,69.0,-100.00,ESE,106,2.0,-999.0,96,0.00,,,-99.99,3.000000,,2013-05-20 11:02:00,
2013-05-20 07:12:00,70.0,69.0,-100.00,ESE,114,1.0,-999.0,96,0.00,,,-99.99,12.500000,,2013-05-20 11:12:00,
2013-05-20 07:21:00,70.0,69.0,-100.00,ESE,114,1.0,-999.0,96,0.00,,,-99.99,12.500000,,2013-05-20 11:21:00,
2013-05-20 07:32:00,71.0,70.0,-100.00,East,96,2.0,-999.0,96,0.00,,,-99.99,29.900000,,2013-05-20 11:32:00,
2013-05-20 07:42:00,71.0,70.0,-100.00,ESE,108,2.0,-999.0,97,0.00,,,-99.99,62.200001,,2013-05-20 11:42:00,
2013-05-20 07:52:00,71.0,70.0,-100.00,ESE,108,2.0,-999.0,97,0.00,,,-99.99,62.200001,,2013-05-20 11:52:00,
2013-05-20 08:01:00,71.0,71.0,-100.00,ESE,118,3.0,-999.0,96,0.00,,,-99.99,86.699997,,2013-05-20 12:01:00,
2013-05-20 08:11:00,72.0,71.0,-100.00,ESE,120,4.0,-999.0,96,0.00,,,-99.99,101.400002,,2013-05-20 12:11:00,
2013-05-20 08:21:00,72.0,71.0,-100.00,ESE,120,4.0,-999.0,96,0.00,,,-99.99,101.400002,,2013-05-20 12:21:00,
2013-05-20 08:32:00,72.0,71.0,-100.00,ESE,110,4.0,-999.0,95,0.00,,,-99.99,103.699997,,2013-05-20 12:32:00,
2013-05-20 08:41:00,73.0,72.0,-100.00,ESE,112,5.0,-999.0,94,0.00,,,-99.99,135.000000,,2013-05-20 12:41:00,
2013-05-20 08:52:00,73.0,72.0,-100.00,ESE,112,5.0,-999.0,94,0.00,,,-99.99,135.000000,,2013-05-20 12:52:00,
2013-05-20 09:01:00,74.0,72.0,-100.00,ESE,107,5.0,-999.0,93,0.00,,,-99.99,116.800003,,2013-05-20 13:01:00,
2013-05-20 09:11:00,74.0,72.0,-100.00,SE,124,4.0,-999.0,93,0.00,,,-99.99,165.600006,,2013-05-20 13:11:00,
2013-05-20 09:22:00,74.0,72.0,-100.00,SE,124,4.0,-999.0,93,0.00,,,-99.99,165.600006,,2013-05-20 13:22:00,
2013-05-20 09:31:00,75.0,72.0,-100.00,SE,131,4.0,-999.0,90,0.00,,,-99.99,142.300003,,2013-05-20 13:31:00,
2013-05-20 09:41:00,76.0,72.0,-100.00,SE,139,4.0,-999.0,88,0.00,,,-99.99,297.100006,,2013-05-20 13:41:00,
2013-05-20 09:52:00,76.0,72.0,-100.00,SE,139,4.0,-999.0,88,0.00,,,-99.99,297.100006,,2013-05-20 13:52:00,
2013-05-20 10:01:00,78.0,71.0,-100.00,SE,137,6.0,-999.0,79,0.09,,,-99.99,566.900024,,2013-05-20 14:01:00,
2013-05-20 10:11:00,79.0,72.0,-100.00,SE,142,6.0,-999.0,78,0.00,,,-99.99,634.200012,,2013-05-20 14:11:00,
2013-05-20 10:22:00,79.0,72.0,-100.00,SE,142,6.0,-999.0,78,0.00,,,-99.99,634.200012,,2013-05-20 14:22:00,
2013-05-20 10:32:00,81.0,71.0,-100.00,SSE,148,6.0,-999.0,72,0.00,,,-99.99,632.599976,,2013-05-20 14:32:00,
2013-05-20 10:42:00,78.0,71.0,-100.00,South,170,7.0,-999.0,80,0.00,,,-99.99,279.899994,,2013-05-20 14:42:00,
2013-05-20 10:52:00,78.0,71.0,-100.00,South,170,7.0,-999.0,80,0.00,,,-99.99,279.899994,,2013-05-20 14:52:00,
2013-05-20 11:01:00,75.0,73.0,-100.00,South,175,4.0,-999.0,95,0.00,,,-99.99,334.700012,,2013-05-20 15:01:00,
2013-05-20 11:11:00,77.0,74.0,-100.00,SSE,156,3.0,-999.0,92,0.00,,,-99.99,466.500000,,2013-05-20 15:11:00,
2013-05-20 11:21:00,77.0,74.0,-100.00,SSE,156,3.0,-999.0,92,0.00,,,-99.99,466.500000,,2013-05-20 15:21:00,
2013-05-20 11:33:00,80.0,74.0,-100.00,SE,132,3.0,-999.0,81,0.00,,,-99.99,623.900024,,2013-05-20 15:33:00,
2013-05-20 11:42:00,82.0,70.0,-100.00,South,182,4.0,-999.0,67,0.00,,,-99.99,769.000000,,2013-05-20 15:42:00,
2013-05-20 11:53:00,82.0,70.0,-100.00,South,182,4.0,-999.0,67,0.00,,,-99.99,769.000000,,2013-05-20 15:53:00,
2013-05-20 12:03:00,84.0,68.0,-100.00,ENE,75,3.0,-999.0,60,0.00,,,-99.99,798.000000,,2013-05-20 16:03:00,
2013-05-20 12:13:00,85.0,69.0,-100.00,ESE,110,4.0,-999.0,58,0.00,,,-99.99,807.000000,,2013-05-20 16:13:00,
2013-05-20 12:23:00,85.0,69.0,-100.00,ESE,110,4.0,-999.0,58,0.00,,,-99.99,807.000000,,2013-05-20 16:23:00,
2013-05-20 12:33:00,85.0,69.0,-100.00,SE,134,3.0,-999.0,58,0.00,,,-99.99,881.000000,,2013-05-20 16:33:00,
2013-05-20 12:42:00,85.0,68.0,-100.00,SE,132,4.0,-999.0,57,0.00,,,-99.99,914.000000,,2013-05-20 16:42:00,
2013-05-20 12:53:00,85.0,68.0,-100.00,SE,132,4.0,-999.0,57,0.00,,,-99.99,914.000000,,2013-05-20 16:53:00,
2013-05-20 13:02:00,85.0,69.0,-100.00,South,171,4.0,-999.0,57,0.00,,,-99.99,738.000000,,2013-05-20 17:02:00,
2013-05-20 13:12:00,85.0,68.0,-100.00,SSE,157,3.0,-999.0,57,0.00,,,-99.99,395.799988,,2013-05-20 17:12:00,
2013-05-20 13:22:00,85.0,68.0,-100.00,SSE,157,3.0,-999.0,57,0.00,,,-99.99,395.799988,,2013-05-20 17:22:00,
2013-05-20 13:33:00,87.0,69.0,-100.00,NNE,31,3.0,-999.0,54,0.00,,,-99.99,655.599976,,2013-05-20 17:33:00,
2013-05-20 13:45:00,85.0,67.0,-100.00,ESE,123,3.0,-999.0,55,0.00,,,-99.99,359.200012,,2013-05-20 17:45:00,
2013-05-20 13:53:00,85.0,67.0,-100.00,ESE,123,3.0,-999.0,55,0.00,,,-99.99,359.200012,,2013-05-20 17:53:00,
2013-05-20 14:02:00,87.0,68.0,-100.00,ENE,72,4.0,-999.0,54,0.00,,,-99.99,628.500000,,2013-05-20 18:02:00,
2013-05-20 14:12:00,87.0,68.0,-100.00,NE,40,3.0,-999.0,53,0.00,,,-99.99,662.599976,,2013-05-20 18:12:00,
2013-05-20 14:23:00,87.0,68.0,-100.00,NE,40,3.0,-999.0,53,0.00,,,-99.99,662.599976,,2013-05-20 18:23:00,
2013-05-20 14:32:00,87.0,68.0,-100.00,NE,55,6.0,-999.0,53,0.00,,,-99.99,808.000000,,2013-05-20 18:32:00,
2013-05-20 14:42:00,88.0,67.0,-100.00,East,82,5.0,-999.0,50,0.00,,,-99.99,895.000000,,2013-05-20 18:42:00,
2013-05-20 14:55:00,88.0,67.0,-100.00,East,82,5.0,-999.0,50,0.00,,,-99.99,895.000000,,2013-05-20 18:55:00,
2013-05-20 15:04:00,89.0,66.0,-100.00,ESE,104,5.0,-999.0,46,0.00,,,-99.99,901.000000,,2013-05-20 19:04:00,
2013-05-20 15:11:00,89.0,65.0,-100.00,East,89,4.0,-999.0,45,0.00,,,-99.99,712.000000,,2013-05-20 19:11:00,
2013-05-20 15:21:00,89.0,65.0,-100.00,East,89,4.0,-999.0,45,0.00,,,-99.99,712.000000,,2013-05-20 19:21:00,
2013-05-20 15:32:00,88.0,65.0,-100.00,ESE,103,6.0,-999.0,45,0.00,,,-99.99,451.299988,,2013-05-20 19:32:00,
2013-05-20 15:42:00,88.0,65.0,-100.00,SE,143,5.0,-999.0,45,0.00,,,-99.99,313.100006,,2013-05-20 19:42:00,
2013-05-20 15:52:00,88.0,65.0,-100.00,SE,143,5.0,-999.0,45,0.00,,,-99.99,313.100006,,2013-05-20 19:52:00,
2013-05-20 16:01:00,88.0,65.0,-100.00,SE,143,5.0,-999.0,45,0.00,,,-99.99,313.100006,,2013-05-20 20:01:00,
2013-05-20 16:12:00,86.0,67.0,-100.00,NE,44,5.0,-999.0,51,0.00,,,-99.99,111.599998,,2013-05-20 20:12:00,
2013-05-20 16:21:00,86.0,67.0,-100.00,NE,44,5.0,-999.0,51,0.00,,,-99.99,111.599998,,2013-05-20 20:21:00,
2013-05-20 16:32:00,82.0,65.0,-100.00,NNW,336,7.0,-999.0,56,0.00,,,-99.99,61.700001,,2013-05-20 20:32:00,
2013-05-20 16:42:00,76.0,63.0,-100.00,NW,322,6.0,-999.0,64,0.00,,,-99.99,44.200001,,2013-05-20 20:42:00,
2013-05-20 16:52:00,76.0,63.0,-100.00,NW,322,6.0,-999.0,64,0.00,,,-99.99,44.200001,,2013-05-20 20:52:00,
2013-05-20 17:01:00,75.0,65.0,-100.00,NW,321,4.0,-999.0,72,0.00,,,-99.99,27.799999,,2013-05-20 21:01:00,
2013-05-20 17:11:00,73.0,66.0,-100.00,NE,41,9.0,-999.0,78,0.00,,,-99.99,28.000000,,2013-05-20 21:11:00,
2013-05-20 17:21:00,73.0,66.0,-100.00,NE,41,9.0,-999.0,78,0.00,,,-99.99,28.000000,,2013-05-20 21:21:00,
2013-05-20 17:33:00,72.0,67.0,-100.00,NE,49,10.0,-999.0,84,0.00,,,-99.99,37.400002,,2013-05-20 21:33:00,
2013-05-20 17:43:00,72.0,68.0,-100.00,East,89,8.0,-999.0,88,0.03,,,-99.99,41.000000,,2013-05-20 21:43:00,
2013-05-20 17:53:00,72.0,68.0,-100.00,East,89,8.0,-999.0,88,0.03,,,-99.99,41.000000,,2013-05-20 21:53:00,
2013-05-20 18:02:00,71.0,67.0,-100.00,NE,56,8.0,-999.0,88,0.08,,,-99.99,47.700001,,2013-05-20 22:02:00,
2013-05-20 18:12:00,70.0,67.0,-100.00,NE,43,5.0,-999.0,90,0.03,,,-99.99,63.099998,,2013-05-20 22:12:00,
2013-05-20 18:23:00,70.0,67.0,-100.00,NE,43,5.0,-999.0,90,0.03,,,-99.99,63.099998,,2013-05-20 22:23:00,
2013-05-20 18:33:00,70.0,67.0,-100.00,East,79,3.0,-999.0,91,0.03,,,-99.99,48.000000,,2013-05-20 22:33:00,
2013-05-20 18:42:00,70.0,68.0,-100.00,SE,136,2.0,-999.0,92,0.00,,,-99.99,66.400002,,2013-05-20 22:42:00,
2013-05-20 18:52:00,70.0,68.0,-100.00,SE,136,2.0,-999.0,92,0.00,,,-99.99,66.400002,,2013-05-20 22:52:00,
2013-05-20 19:03:00,70.0,68.0,-100.00,East,89,3.0,-999.0,91,0.00,,,-99.99,76.699997,,2013-05-20 23:03:00,
2013-05-20 19:12:00,70.0,67.0,-100.00,ENE,70,4.0,-999.0,91,0.00,,,-99.99,45.400002,,2013-05-20 23:12:00,
2013-05-20 19:22:00,70.0,67.0,-100.00,ENE,70,4.0,-999.0,91,0.00,,,-99.99,45.400002,,2013-05-20 23:22:00,
2013-05-20 19:32:00,70.0,68.0,-100.00,East,98,4.0,-999.0,91,0.00,,,-99.99,28.500000,,2013-05-20 23:32:00,
2013-05-20 19:42:00,70.0,68.0,-100.00,NNW,332,3.0,-999.0,92,0.00,,,-99.99,45.599998,,2013-05-20 23:42:00,
2013-05-20 19:53:00,70.0,68.0,-100.00,NNW,332,3.0,-999.0,92,0.00,,,-99.99,45.599998,,2013-05-20 23:53:00,
2013-05-20 20:01:00,70.0,68.0,-100.00,NNW,341,4.0,-999.0,93,0.00,,,-99.99,47.299999,,2013-05-21 00:01:00,
2013-05-20 20:11:00,71.0,69.0,-100.00,NNE,12,4.0,-999.0,94,0.00,,,-99.99,17.600000,,2013-05-21 00:11:00,
2013-05-20 20:21:00,71.0,69.0,-100.00,NNE,12,4.0,-999.0,94,0.00,,,-99.99,17.600000,,2013-05-21 00:21:00,
2013-05-20 20:32:00,71.0,70.0,-100.00,NE,42,5.0,-999.0,94,0.00,,,-99.99,2.500000,,2013-05-21 00:32:00,
2013-05-20 20:42:00,72.0,70.0,-100.00,East,96,3.0,-999.0,94,0.00,,,-99.99,0.400000,,2013-05-21 00:42:00,
2013-05-20 20:52:00,72.0,70.0,-100.00,East,96,3.0,-999.0,94,0.00,,,-99.99,0.400000,,2013-05-21 00:52:00,
2013-05-20 21:01:00,71.0,70.0,-100.00,WNW,300,2.0,-999.0,94,0.00,,,-99.99,0.000000,,2013-05-21 01:01:00,
2013-05-20 21:11:00,71.0,70.0,-100.00,WNW,297,2.0,-999.0,95,0.00,,,-99.99,0.000000,,2013-05-21 01:11:00,
2013-05-20 21:22:00,71.0,70.0,-100.00,WNW,297,2.0,-999.0,95,0.00,,,-99.99,0.000000,,2013-05-21 01:22:00,
2013-05-20 21:32:00,71.0,70.0,-100.00,NNW,337,2.0,-999.0,95,0.00,,,-99.99,0.000000,,2013-05-21 01:32:00,
2013-05-20 21:42:00,71.0,70.0,-100.00,NNW,337,2.0,-999.0,95,0.00,,,-99.99,0.000000,,2013-05-21 01:42:00,
2013-05-20 21:53:00,71.0,70.0,-100.00,NW,326,1.0,-999.0,96,0.00,,,-99.99,0.100000,,2013-05-21 01:53:00,
2013-05-20 22:02:00,71.0,70.0,-100.00,NNW,330,1.0,-999.0,96,0.00,,,-99.99,0.100000,,2013-05-21 02:02:00,
2013-05-20 22:11:00,71.0,70.0,-100.00,North,8,3.0,-999.0,96,0.00,,,-99.99,0.100000,,2013-05-21 02:11:00,
2013-05-20 22:21:00,71.0,70.0,-100.00,North,8,3.0,-999.0,96,0.00,,,-99.99,0.100000,,2013-05-21 02:21:00,
2013-05-20 22:32:00,71.0,70.0,-100.00,NNE,24,3.0,-999.0,97,0.00,,,-99.99,0.200000,,2013-05-21 02:32:00,
2013-05-20 22:42:00,71.0,70.0,-100.00,NNE,18,3.0,-999.0,97,0.00,,,-99.99,0.200000,,2013-05-21 02:42:00,
2013-05-20 22:52:00,71.0,70.0,-100.00,NNE,18,3.0,-999.0,97,0.00,,,-99.99,0.200000,,2013-05-21 02:52:00,
2013-05-20 23:02:00,70.0,70.0,-100.00,NNE,22,3.0,-999.0,97,0.00,,,-99.99,0.200000,,2013-05-21 03:02:00,
2013-05-20 23:11:00,70.0,70.0,-100.00,NNE,29,3.0,-999.0,97,0.00,,,-99.99,0.200000,,2013-05-21 03:11:00,
2013-05-20 23:21:00,70.0,70.0,-100.00,NNE,29,3.0,-999.0,97,0.00,,,-99.99,0.200000,,2013-05-21 03:21:00,
2013-05-20 23:33:00,70.0,69.0,-100.00,NE,34,2.0,-999.0,97,0.00,,,-99.99,0.200000,,2013-05-21 03:33:00,
2013-05-20 23:43:00,70.0,69.0,-100.00,ENE,72,3.0,-999.0,97,0.00,,,-99.99,0.200000,,2013-05-21 03:43:00,
2013-05-20 23:53:00,70.0,69.0,-100.00,ENE,72,3.0,-999.0,97,0.00,,,-99.99,0.200000,,2013-05-21 03:53:00,